Regional Weather Roundup
Issued by NWS

Home | Current Version | Previous Version | Graphics & Text | Print | Product List | Glossary On
Versions: 1 2 3 4 5 6 7 8 9 10 11 12 13 14 15 16 17 18 19 20 21 22 23 24 25 26 27 28 29 30 31 32 33 34 35 36 37 38 39 40 41 42 43 44 45 46 47 48 49 50
000
ASUS43 KFSD 042202
RWRSD

WEATHER ROUNDUP FOR SOUTH DAKOTA
NATIONAL WEATHER SERVICE SIOUX FALLS SD
500 PM CDT SAT JUL 04 2015

NOTE: "FAIR" INDICATES FEW OR NO CLOUDS BELOW 12,000 FEET WITH NO
SIGNIFICANT WEATHER AND/OR OBSTRUCTIONS TO VISIBILITY.


SDZ001>005-009-010-012>017-042300-
NORTHWEST AND NORTH CENTRAL SOUTH DAKOTA

CITY           SKY/WX    TMP DP  RH WIND       PRES   REMARKS
BUFFALO          N/A     93  54  26 VRB3      29.72F
FAITH            N/A     89  66  46 S10       29.76F
MOBRIDGE       MOSUNNY   90  71  53 SE18      29.73F HX  96
$$

SDZ012>016-024>037-041>051-057-063-072>074-042300-
SOUTHWEST AND SOUTH CENTRAL SOUTH DAKOTA

CITY           SKY/WX    TMP DP  RH WIND       PRES   REMARKS
RAPID CTY ARPT SUNNY     89  66  46 S5        29.83S
PIERRE         SUNNY     90  68  48 S18       29.74F
CUSTER         MOSUNNY   80  62  54 E10       29.99F
ELLSWORTH AFB  SUNNY     90  61  38 S6        29.82F
PHILIP         MOSUNNY   94  67  41 S10G18    29.74F HX  97
PINE RIDGE     SUNNY     90  64  42 S10       29.82F
WINNER         FAIR      93  59  31 S18G28    29.80F
$$

SDZ004>011-016>023-039-040-042300-
NORTHEAST SOUTH DAKOTA

CITY           SKY/WX    TMP DP  RH WIND       PRES   REMARKS
ABERDEEN       SUNNY     87  67  51 S16G22    29.79F
WATERTOWN      MOSUNNY   83  65  54 S15G22    29.87F
BROOKINGS      SUNNY     81  63  54 S16       29.91S
SISSETON         N/A     86  65  49 S14       29.81F
$$

SDZ017-020-022-023-036>040-048>070-042300-
SOUTHEAST SOUTH DAKOTA

CITY           SKY/WX    TMP DP  RH WIND       PRES   REMARKS
SIOUX FALLS    CLOUDY    82  66  58 S15G22    29.90F
HURON          SUNNY     83  64  52 S16G24    29.82F
MITCHELL       MOSUNNY   84  65  52 S14G26    29.86S
YANKTON        MOSUNNY   82  66  57 S16       29.88S
$$

ABBREVIATIONS USED IN REMARKS
   TC - TEMPERATURE IN CELSIUS
  WCI - WIND CHILL INDEX
   HX - HEAT INDEX
  VSB - VISIBILITY




USA.gov is the U.S. government's official web portal to all federal, state and local government web resources and services.